Temp
-8 -7 -7 -7 -7 -7 -6 -6 -6 -6 -6 -6 -6 -6 -5 -5 -5 -5 -5 -5 -5 -5 -5 -5 -5 -5 -5 -5 -5 -5 -5 -5 -5 -5 -5 -5 -5 -5 -5 -5 -5 -5 -4 -4 -4 -4 -3 -3 -3 -3 -3 -2 -2 -2 -2 -2 -1 -1 -1 -1 -1 -1 -1
-8 -8 -8 -8 -8 -8 -7 -7 -7 -7 -7 -7 -6 -6 -6 -6 -6 -6 -6 -6 -5 -5 -5 -5 -5 -5 -5 -5 -5 -5 -5 -5 -5 -5 -5 -5 -5 -5 -5 -5 -5 -5 -5 -5 -4 -4 -4 -4 -4 -4 -3 -3 -3 -2 -2 -2 -2 -2 -2 -1 -1 -1 -1
-9 -9 -9 -9 -9 -9 -8 -8 -8 -8 -8 -8 -8 -7 -7 -7 -7 -7 -7 -7 -7 -6 -6 -6 -6 -6 -6 -6 -6 -6 -6 -6 -6 -6 -6 -6 -6 -6 -6 -6 -6 -6 -5 -5 -5 -5 -5 -4 -4 -4 -4 -3 -3 -3 -2 -2 -2 -2 -2 -2 -2 -1 -1
-10 -10 -10 -9 -9 -9 -9 -9 -9 -9 -8 -8 -8 -8 -8 -8 -8 -8 -8 -8 -7 -7 -7 -7 -7 -7 -6 -6 -6 -6 -6 -6 -6 -6 -6 -6 -6 -6 -6 -6 -6 -6 -6 -6 -6 -6 -5 -5 -5 -5 -4 -4 -4 -3 -3 -3 -3 -3 -2 -2 -2 -2 -2
-10 -10 -10 -10 -9 -9 -9 -9 -9 -9 -9 -9 -9 -9 -9 -9 -9 -8 -8 -8 -8 -8 -8 -8 -8 -8 -7 -7 -7 -7 -7 -7 -7 -7 -7 -6 -6 -6 -6 -6 -6 -6 -6 -6 -6 -6 -6 -6 -5 -5 -5 -5 -5 -4 -4 -4 -4 -3 -3 -3 -3 -2 -2
-10 -10 -10 -10 -10 -10 -9 -9 -9 -9 -9 -9 -9 -9 -9 -9 -9 -9 -9 -9 -8 -8 -8 -8 -8 -8 -8 -8 -8 -8 -8 -7 -7 -7 -7 -7 -7 -7 -7 -7 -6 -6 -6 -6 -7 -7 -6 -6 -6 -6 -6 -6 -5 -5 -5 -5 -5 -4 -4 -4 -3 -3 -3
-11 -11 -11 -10 -10 -10 -10 -10 -10 -10 -9 -9 -9 -9 -9 -9 -9 -9 -9 -9 -9 -8 -8 -8 -8 -8 -8 -8 -8 -8 -8 -8 -8 -8 -8 -8 -8 -7 -7 -7 -7 -7 -7 -7 -7 -7 -7 -7 -7 -7 -6 -6 -6 -6 -6 -6 -6 -5 -5 -4 -4 -4 -4
-11 -11 -11 -11 -11 -11 -11 -10 -10 -10 -10 -10 -10 -9 -9 -9 -9 -9 -9 -9 -9 -9 -9 -9 -8 -8 -8 -8 -8 -8 -8 -8 -8 -8 -8 -8 -8 -8 -8 -8 -8 -7 -7 -7 -7 -7 -7 -7 -7 -7 -7 -7 -7 -7 -7 -7 -7 -6 -6 -5 -5 -5 -5
-12 -12 -11 -11 -11 -11 -11 -11 -11 -11 -11 -10 -10 -10 -10 -9 -9 -9 -9 -9 -9 -9 -9 -9 -9 -9 -9 -9 -9 -9 -9 -8 -8 -8 -8 -8 -8 -8 -8 -8 -8 -8 -8 -8 -8 -8 -8 -8 -8 -8 -8 -7 -7 -7 -7 -7 -7 -7 -7 -6 -6 -6 -5
-12 -12 -12 -12 -12 -12 -12 -12 -11 -11 -11 -12 -11 -11 -10 -10 -10 -10 -9 -9 -9 -9 -9 -10 -10 -10 -10 -10 -10 -10 -10 -9 -9 -9 -9 -9 -9 -9 -9 -9 -9 -9 -9 -9 -9 -9 -9 -9 -9 -9 -9 -8 -7 -7 -8 -7 -8 -8 -7 -7 -7 -6 -6
-13 -13 -13 -12 -12 -12 -12 -12 -12 -12 -12 -13 -13 -13 -12 -11 -11 -10 -10 -10 -9 -9 -10 -10 -10 -11 -11 -11 -11 -11 -11 -10 -10 -10 -10 -10 -10 -9 -9 -9 -9 -9 -9 -9 -9 -9 -10 -10 -11 -11 -11 -10 -9 -8 -8 -8 -8 -8 -8 -8 -8 -7 -7
-14 -14 -14 -13 -13 -13 -13 -13 -13 -13 -13 -14 -14 -14 -14 -13 -12 -12 -11 -10 -10 -11 -11 -11 -11 -11 -12 -12 -12 -12 -12 -12 -11 -11 -11 -10 -10 -11 -11 -11 -11 -10 -10 -10 -10 -10 -10 -11 -11 -12 -12 -12 -11 -10 -9 -9 -9 -9 -9 -9 -9 -8 -8
-15 -15 -15 -14 -14 -14 -14 -14 -14 -14 -15 -15 -15 -15 -16 -15 -14 -13 -12 -12 -12 -12 -12 -12 -12 -12 -12 -12 -13 -13 -13 -13 -13 -13 -12 -12 -11 -11 -12 -12 -12 -12 -12 -11 -11 -11 -11 -11 -12 -12 -12 -12 -12 -12 -11 -11 -10 -10 -10 -10 -9 -9 -9
-15 -15 -16 -15 -15 -15 -15 -15 -15 -15 -16 -16 -16 -17 -17 -17 -16 -15 -15 -14 -14 -14 -14 -14 -14 -13 -13 -13 -13 -14 -14 -14 -14 -14 -14 -14 -13 -12 -12 -12 -13 -13 -13 -13 -13 -12 -12 -12 -12 -12 -12 -13 -13 -12 -12 -12 -11 -11 -11 -11 -10 -10 -10
-17 -16 -17 -17 -16 -16 -16 -16 -16 -16 -17 -17 -17 -18 -18 -18 -17 -17 -17 -17 -16 -16 -16 -16 -16 -15 -15 -14 -14 -14 -15 -15 -15 -15 -15 -15 -15 -15 -14 -13 -13 -13 -13 -14 -14 -14 -14 -13 -13 -13 -13 -13 -13 -13 -13 -13 -12 -12 -12 -11 -11 -11 -10
-18 -18 -17 -17 -18 -17 -17 -17 -17 -17 -18 -18 -19 -19 -19 -19 -19 -19 -19 -19 -18 -18 -18 -18 -18 -17 -17 -16 -16 -16 -16 -16 -17 -17 -17 -17 -16 -16 -15 -15 -15 -14 -14 -14 -14 -15 -15 -15 -15 -15 -15 -14 -14 -15 -14 -14 -13 -13 -13 -12 -12 -11 -11
-19 -19 -19 -19 -19 -19 -19 -19 -19 -19 -19 -19 -20 -20 -20 -20 -21 -21 -21 -21 -20 -19 -19 -19 -19 -19 -19 -19 -18 -18 -18 -18 -19 -19 -19 -19 -18 -17 -17 -16 -16 -16 -16 -16 -16 -16 -16 -16 -16 -16 -16 -15 -15 -15 -15 -15 -14 -14 -14 -13 -13 -12 -12
-20 -20 -20 -20 -20 -20 -20 -20 -21 -21 -20 -20 -21 -22 -22 -22 -22 -22 -22 -22 -22 -22 -21 -20 -20 -20 -20 -20 -20 -20 -20 -20 -21 -21 -21 -21 -20 -19 -19 -19 -19 -19 -18 -17 -17 -17 -16 -17 -16 -16 -16 -16 -16 -16 -15 -15 -15 -14 -14 -14 -14 -13 -13
-21 -21 -21 -21 -21 -22 -22 -22 -22 -22 -22 -22 -22 -23 -23 -24 -24 -24 -24 -24 -23 -23 -22 -22 -22 -21 -21 -21 -21 -20 -20 -21 -21 -21 -21 -21 -21 -21 -20 -20 -20 -20 -20 -19 -18 -18 -17 -17 -17 -16 -16 -16 -16 -16 -16 -16 -16 -15 -15 -15 -14 -14 -14
-23 -22 -22 -23 -22 -22 -23 -23 -23 -23 -23 -23 -23 -24 -25 -25 -25 -25 -25 -25 -24 -24 -24 -24 -23 -22 -22 -22 -21 -21 -21 -21 -21 -22 -22 -22 -21 -21 -21 -21 -21 -21 -21 -21 -20 -19 -18 -18 -17 -17 -17 -17 -17 -17 -17 -17 -17 -16 -16 -16 -15 -15 -15
-24 -24 -24 -24 -24 -24 -24 -24 -24 -24 -24 -24 -24 -25 -25 -26 -25 -25 -26 -25 -25 -25 -25 -25 -24 -23 -23 -22 -22 -22 -22 -22 -22 -22 -23 -22 -22 -22 -22 -21 -21 -21 -21 -21 -21 -21 -20 -19 -19 -19 -18 -18 -18 -17 -17 -17 -17 -17 -17 -17 -16 -16 -16
-24 -24 -24 -25 -25 -25 -25 -25 -25 -25 -25 -25 -25 -25 -26 -25 -25 -26 -26 -27 -26 -26 -26 -26 -26 -25 -25 -24 -23 -23 -23 -24 -24 -23 -23 -23 -23 -23 -22 -22 -22 -22 -22 -22 -22 -21 -21 -20 -20 -20 -20 -19 -19 -18 -18 -18 -18 -17 -17 -18 -17 -17 -17
-26 -25 -25 -25 -26 -26 -26 -26 -26 -26 -26 -26 -26 -26 -26 -26 -26 -26 -27 -27 -27 -27 -27 -27 -27 -26 -26 -26 -25 -25 -25 -25 -24 -24 -23 -23 -23 -23 -22 -22 -22 -22 -22 -22 -22 -22 -21 -21 -21 -21 -21 -20 -20 -19 -19 -19 -19 -19 -19 -19 -18 -18 -18
-27 -27 -27 -27 -27 -27 -27 -27 -27 -27 -27 -27 -27 -27 -27 -27 -26 -26 -27 -28 -28 -27 -27 -27 -27 -27 -27 -27 -26 -26 -26 -25 -25 -24 -24 -24 -23 -23 -23 -23 -23 -23 -23 -23 -22 -22 -22 -22 -22 -22 -21 -21 -20 -20 -20 -20 -19 -19 -20 -19 -19 -19 -19
-29 -29 -29 -29 -28 -28 -28 -28 -28 -28 -27 -27 -27 -27 -27 -27 -27 -27 -27 -27 -28 -28 -28 -28 -27 -27 -27 -27 -27 -27 -26 -26 -26 -25 -25 -25 -24 -24 -24 -23 -23 -23 -23 -23 -23 -23 -23 -22 -22 -22 -22 -22 -21 -21 -21 -20 -20 -20 -20 -19 -19 -19 -19
-30 -30 -29 -29 -29 -29 -29 -28 -28 -28 -28 -28 -27 -27 -27 -27 -27 -27 -28 -28 -28 -28 -28 -28 -28 -28 -28 -28 -27 -27 -27 -27 -26 -26 -26 -25 -25 -24 -24 -24 -24 -24 -23 -23 -23 -23 -23 -23 -23 -23 -23 -22 -22 -22 -21 -21 -21 -21 -20 -20 -20 -20 -20
-30 -30 -30 -30 -30 -30 -29 -29 -29 -28 -28 -28 -28 -28 -28 -28 -28 -28 -28 -28 -28 -28 -28 -28 -28 -28 -28 -28 -28 -27 -27 -27 -27 -26 -26 -26 -25 -25 -25 -25 -24 -24 -24 -24 -24 -24 -24 -24 -24 -24 -23 -23 -23 -22 -22 -22 -22 -22 -21 -21 -21 -21 -21
-31 -31 -31 -31 -31 -31 -30 -30 -29 -29 -29 -29 -30 -30 -29 -29 -29 -29 -29 -29 -29 -29 -29 -29 -29 -29 -29 -29 -28 -28 -28 -27 -27 -27 -27 -26 -26 -26 -26 -26 -25 -25 -25 -25 -25 -25 -25 -25 -24 -24 -24 -24 -23 -23 -23 -22 -22 -22 -22 -22 -21 -21 -21
-31 -31 -32 -32 -32 -31 -31 -31 -30 -30 -30 -31 -31 -31 -31 -31 -30 -30 -30 -30 -30 -30 -30 -30 -30 -30 -30 -29 -29 -28 -28 -28 -27 -27 -27 -27 -27 -27 -26 -26 -26 -25 -25 -25 -25 -25 -25 -25 -25 -25 -25 -24 -24 -24 -23 -23 -23 -22 -22 -22 -22 -21 -21
-31 -32 -32 -32 -32 -32 -32 -32 -32 -31 -31 -31 -32 -31 -31 -31 -31 -30 -30 -30 -30 -30 -30 -30 -30 -30 -30 -30 -29 -29 -29 -29 -28 -28 -27 -27 -27 -27 -27 -26 -26 -26 -26 -26 -26 -26 -25 -25 -25 -25 -25 -25 -25 -24 -24 -23 -23 -23 -22 -22 -22 -22 -22
-31 -32 -32 -32 -32 -32 -32 -32 -32 -32 -32 -32 -32 -32 -32 -32 -31 -31 -31 -31 -31 -31 -31 -31 -31 -30 -30 -30 -30 -30 -30 -30 -29 -29 -29 -28 -28 -27 -27 -27 -27 -27 -27 -27 -26 -26 -26 -26 -26 -26 -26 -25 -25 -25 -24 -24 -23 -23 -23 -22 -22 -22 -22
-31 -32 -32 -33 -33 -33 -32 -32 -32 -33 -33 -33 -32 -32 -32 -32 -32 -32 -32 -32 -32 -31 -31 -31 -31 -31 -31 -31 -31 -30 -30 -30 -30 -30 -30 -29 -29 -29 -28 -28 -28 -28 -27 -27 -27 -27 -27 -26 -26 -26 -26 -26 -26 -26 -25 -24 -24 -23 -23 -23 -23 -22 -22
-32 -32 -33 -33 -33 -33 -33 -33 -33 -33 -33 -33 -33 -33 -33 -33 -33 -32 -32 -32 -32 -32 -32 -32 -32 -31 -31 -31 -31 -31 -31 -31 -31 -30 -30 -30 -30 -30 -29 -29 -28 -28 -28 -28 -28 -27 -27 -27 -27 -27 -27 -27 -26 -26 -26 -25 -25 -24 -24 -24 -23 -23 -23
-32 -32 -33 -33 -33 -33 -33 -33 -33 -34 -34 -34 -34 -34 -34 -33 -33 -32 -32 -32 -33 -33 -32 -32 -32 -32 -32 -32 -32 -32 -32 -32 -31 -31 -31 -31 -30 -30 -30 -29 -29 -29 -28 -28 -28 -28 -28 -28 -27 -27 -27 -27 -27 -27 -26 -26 -26 -25 -25 -24 -24 -23 -23
-32 -32 -33 -33 -33 -33 -33 -34 -34 -34 -34 -34 -34 -34 -34 -33 -33 -33 -33 -32 -32 -33 -33 -33 -33 -33 -33 -33 -32 -32 -32 -32 -32 -32 -31 -31 -31 -30 -30 -30 -30 -29 -29 -29 -29 -28 -28 -28 -28 -28 -28 -28 -28 -27 -27 -27 -26 -26 -25 -25 -24 -24 -24
-32 -32 -32 -33 -33 -34 -34 -34 -34 -33 -33 -33 -34 -34 -34 -34 -33 -33 -33 -33 -33 -33 -33 -33 -33 -33 -33 -33 -33 -33 -33 -33 -32 -32 -32 -32 -31 -31 -31 -30 -30 -30 -30 -29 -29 -29 -29 -29 -28 -28 -28 -28 -28 -28 -28 -27 -27 -26 -26 -26 -25 -25 -24
Height
1471 1470 1470 1470 1470 1470 1470 1470 1469 1470 1469 1470 1470 1470 1471 1471 1472 1472 1473 1473 1474 1474 1475 1475 1476 1476 1476 1477 1477 1478 1478 1478 1478 1479 1480 1481 1482 1483 1484 1485 1485 1483 1482 1484 1486 1486 1487 1488 1488 1489 1489 1490 1492 1494 1495 1496 1497 1498 1498 1499 1499 1501 1502
1471 1471 1471 1470 1470 1470 1470 1470 1470 1470 1469 1470 1470 1470 1470 1470 1471 1472 1472 1473 1473 1474 1474 1474 1475 1475 1475 1476 1476 1476 1476 1476 1476 1477 1477 1478 1479 1480 1481 1482 1482 1481 1480 1480 1482 1483 1484 1484 1485 1485 1486 1488 1489 1491 1492 1492 1493 1494 1495 1495 1496 1497 1498
1472 1471 1471 1471 1471 1470 1470 1470 1470 1470 1469 1469 1469 1469 1470 1470 1470 1471 1471 1472 1472 1473 1473 1473 1473 1474 1474 1474 1474 1474 1474 1474 1474 1475 1475 1476 1476 1477 1478 1478 1479 1478 1477 1476 1478 1479 1480 1481 1482 1483 1484 1485 1486 1488 1489 1489 1490 1491 1491 1491 1492 1493 1494
1472 1472 1471 1471 1471 1470 1470 1470 1470 1470 1469 1469 1469 1469 1469 1469 1470 1470 1470 1470 1471 1471 1471 1471 1472 1472 1472 1472 1472 1472 1472 1472 1472 1472 1472 1473 1474 1474 1474 1475 1476 1475 1475 1474 1474 1475 1477 1478 1479 1479 1481 1483 1483 1485 1486 1486 1487 1487 1487 1488 1488 1488 1489
1472 1472 1471 1471 1471 1470 1470 1470 1470 1469 1469 1469 1469 1469 1469 1469 1469 1469 1469 1469 1469 1469 1469 1470 1470 1470 1470 1470 1470 1470 1469 1469 1469 1470 1470 1470 1470 1471 1471 1472 1472 1472 1472 1471 1470 1471 1472 1474 1475 1476 1478 1479 1480 1481 1483 1483 1483 1483 1483 1483 1484 1484 1485
1472 1472 1471 1471 1470 1470 1469 1469 1469 1469 1468 1468 1468 1468 1468 1468 1468 1468 1467 1467 1467 1468 1468 1468 1468 1468 1468 1467 1467 1467 1467 1467 1467 1467 1467 1467 1467 1468 1468 1468 1469 1469 1469 1468 1468 1468 1469 1470 1471 1472 1473 1476 1477 1478 1478 1479 1479 1479 1479 1479 1480 1481 1482
1472 1471 1471 1470 1470 1469 1469 1468 1468 1467 1467 1467 1466 1466 1466 1466 1466 1466 1466 1466 1466 1466 1466 1466 1466 1465 1465 1465 1465 1465 1465 1464 1465 1465 1465 1465 1465 1465 1465 1465 1466 1466 1466 1466 1465 1465 1465 1466 1467 1468 1469 1472 1473 1473 1473 1474 1474 1474 1474 1475 1475 1476 1477
1471 1470 1470 1470 1469 1468 1468 1467 1467 1466 1465 1465 1465 1464 1464 1464 1464 1463 1464 1464 1464 1464 1463 1463 1463 1463 1463 1463 1463 1462 1462 1462 1462 1462 1462 1463 1462 1462 1463 1463 1463 1463 1463 1463 1463 1463 1463 1463 1464 1465 1466 1468 1469 1469 1469 1470 1470 1469 1469 1471 1471 1471 1472
1469 1469 1468 1468 1468 1467 1466 1466 1465 1464 1464 1463 1462 1462 1461 1461 1461 1461 1461 1461 1461 1461 1461 1461 1461 1461 1461 1461 1460 1460 1460 1460 1460 1460 1460 1460 1460 1460 1460 1460 1460 1460 1460 1460 1460 1460 1460 1461 1461 1462 1464 1465 1465 1465 1465 1466 1466 1464 1464 1466 1466 1466 1467
1467 1467 1466 1466 1465 1465 1464 1464 1463 1463 1462 1461 1460 1459 1459 1458 1458 1457 1457 1457 1458 1458 1458 1458 1458 1458 1458 1458 1458 1457 1457 1457 1457 1457 1457 1458 1458 1458 1458 1458 1458 1458 1458 1457 1457 1457 1458 1458 1458 1459 1460 1460 1461 1462 1462 1461 1461 1460 1460 1461 1461 1460 1462
1465 1464 1464 1463 1463 1462 1462 1461 1461 1460 1460 1459 1458 1457 1456 1455 1455 1454 1454 1454 1455 1455 1455 1455 1455 1455 1455 1454 1454 1454 1453 1453 1454 1454 1454 1454 1455 1455 1455 1455 1454 1454 1455 1455 1454 1454 1455 1455 1455 1456 1456 1456 1457 1458 1457 1457 1457 1456 1456 1457 1456 1455 1457
1462 1461 1460 1460 1459 1459 1459 1458 1458 1457 1457 1456 1456 1454 1453 1452 1451 1450 1450 1451 1452 1451 1451 1451 1451 1451 1451 1451 1450 1450 1449 1449 1449 1450 1450 1450 1451 1451 1451 1451 1451 1451 1451 1451 1451 1451 1451 1451 1451 1452 1452 1453 1453 1453 1453 1453 1453 1453 1452 1453 1452 1452 1452
1459 1458 1458 1457 1456 1456 1455 1455 1454 1454 1454 1453 1453 1452 1451 1448 1447 1447 1447 1447 1448 1448 1447 1447 1446 1446 1446 1446 1446 1446 1446 1445 1445 1445 1446 1446 1446 1447 1448 1448 1448 1447 1447 1447 1447 1446 1446 1447 1448 1448 1448 1450 1450 1450 1449 1449 1449 1449 1449 1449 1449 1448 1448
1457 1456 1455 1454 1453 1452 1452 1452 1451 1451 1450 1450 1449 1449 1448 1445 1443 1443 1444 1444 1444 1444 1443 1443 1442 1442 1442 1442 1442 1442 1442 1441 1441 1441 1441 1441 1442 1442 1443 1443 1444 1444 1443 1443 1443 1443 1442 1443 1444 1444 1444 1446 1447 1446 1446 1446 1446 1446 1446 1445 1445 1444 1444
1454 1453 1452 1451 1450 1449 1449 1449 1449 1448 1448 1447 1447 1446 1444 1442 1440 1440 1440 1439 1440 1440 1440 1439 1438 1437 1437 1437 1438 1438 1438 1437 1437 1437 1437 1437 1437 1437 1438 1438 1439 1439 1439 1440 1440 1439 1439 1439 1440 1441 1441 1442 1443 1442 1442 1442 1441 1441 1441 1441 1440 1440 1440
1451 1451 1450 1449 1448 1446 1446 1446 1446 1445 1445 1444 1444 1443 1441 1439 1438 1437 1436 1435 1435 1436 1436 1435 1435 1434 1434 1433 1434 1434 1434 1434 1434 1434 1433 1433 1433 1433 1433 1433 1434 1434 1435 1435 1435 1435 1435 1435 1436 1437 1437 1437 1438 1437 1436 1436 1436 1436 1437 1437 1436 1435 1435
1449 1448 1447 1446 1445 1443 1443 1443 1442 1442 1441 1441 1441 1440 1438 1436 1435 1434 1433 1432 1432 1432 1432 1432 1432 1431 1430 1430 1430 1430 1430 1431 1431 1431 1430 1429 1428 1428 1428 1429 1429 1429 1429 1430 1430 1430 1430 1430 1430 1431 1431 1432 1432 1432 1432 1431 1431 1432 1434 1433 1432 1430 1431
1446 1446 1445 1443 1442 1441 1440 1439 1439 1438 1438 1438 1439 1437 1435 1434 1433 1431 1430 1429 1428 1428 1429 1429 1429 1428 1427 1426 1426 1426 1427 1428 1428 1428 1427 1426 1425 1425 1424 1424 1424 1424 1423 1424 1425 1425 1425 1425 1425 1426 1426 1427 1428 1428 1429 1428 1428 1429 1430 1429 1428 1427 1427
1444 1443 1443 1441 1440 1439 1438 1436 1436 1435 1435 1435 1435 1435 1434 1432 1430 1428 1427 1426 1425 1425 1425 1425 1424 1424 1424 1423 1423 1423 1424 1425 1425 1424 1424 1423 1423 1421 1420 1421 1421 1420 1419 1418 1418 1419 1419 1420 1421 1421 1422 1422 1422 1423 1424 1424 1424 1425 1425 1424 1424 1424 1424
1441 1440 1440 1439 1438 1437 1436 1434 1433 1433 1432 1432 1432 1432 1432 1429 1427 1425 1424 1423 1423 1422 1421 1420 1420 1421 1421 1421 1421 1421 1421 1421 1421 1421 1421 1420 1420 1418 1418 1418 1418 1416 1415 1413 1413 1413 1414 1415 1416 1416 1416 1416 1416 1417 1419 1419 1420 1420 1421 1420 1419 1420 1420
1438 1437 1436 1436 1435 1434 1434 1432 1431 1430 1430 1429 1429 1429 1428 1426 1424 1424 1422 1421 1420 1419 1418 1417 1417 1417 1418 1418 1418 1417 1417 1418 1419 1418 1417 1416 1416 1416 1415 1415 1413 1412 1411 1409 1409 1409 1410 1410 1410 1410 1410 1411 1411 1412 1413 1414 1414 1415 1416 1416 1415 1415 1415
1436 1434 1434 1433 1432 1432 1431 1430 1429 1428 1427 1426 1426 1426 1425 1423 1422 1422 1420 1418 1417 1416 1415 1415 1414 1414 1414 1414 1414 1414 1414 1414 1414 1413 1411 1411 1411 1411 1411 1410 1408 1407 1407 1406 1406 1406 1406 1405 1405 1405 1405 1406 1406 1407 1407 1408 1409 1410 1410 1410 1410 1410 1409
1434 1432 1431 1430 1430 1429 1429 1428 1427 1425 1424 1424 1423 1422 1422 1421 1420 1419 1418 1416 1414 1413 1413 1412 1411 1411 1411 1410 1410 1410 1410 1409 1408 1407 1407 1407 1407 1407 1406 1406 1405 1404 1403 1403 1403 1402 1402 1401 1401 1401 1401 1401 1401 1402 1403 1403 1403 1404 1404 1404 1405 1405 1404
1431 1429 1428 1427 1426 1426 1426 1425 1424 1423 1422 1421 1420 1419 1418 1417 1416 1416 1415 1413 1412 1411 1410 1409 1409 1408 1408 1407 1406 1406 1405 1405 1404 1404 1404 1404 1404 1403 1403 1402 1401 1401 1400 1399 1399 1399 1398 1397 1398 1397 1397 1397 1397 1397 1398 1397 1398 1398 1399 1399 1399 1399 1400
1428 1427 1426 1424 1423 1422 1422 1421 1420 1419 1419 1418 1417 1416 1415 1414 1413 1412 1412 1410 1409 1408 1407 1406 1406 1405 1404 1404 1403 1402 1401 1401 1401 1401 1400 1400 1400 1399 1399 1398 1397 1397 1396 1396 1395 1395 1394 1394 1394 1394 1394 1394 1393 1393 1393 1393 1393 1393 1394 1394 1394 1394 1395
1425 1424 1423 1421 1420 1419 1418 1417 1417 1416 1415 1415 1413 1412 1411 1410 1410 1409 1408 1407 1406 1405 1404 1403 1403 1402 1401 1400 1399 1399 1398 1397 1397 1397 1396 1396 1396 1395 1394 1394 1393 1393 1392 1392 1391 1391 1390 1390 1390 1390 1390 1390 1390 1389 1389 1390 1390 1389 1390 1390 1390 1390 1389
1422 1421 1419 1418 1417 1415 1414 1413 1413 1412 1411 1411 1409 1408 1408 1407 1406 1405 1404 1403 1402 1402 1401 1400 1399 1398 1397 1396 1396 1395 1395 1394 1393 1392 1392 1391 1391 1391 1390 1390 1389 1389 1388 1388 1387 1387 1387 1387 1387 1386 1386 1387 1386 1386 1386 1387 1387 1386 1386 1387 1387 1386 1384
1419 1418 1417 1415 1413 1411 1410 1410 1409 1409 1408 1407 1406 1405 1404 1403 1402 1402 1401 1400 1399 1398 1397 1396 1395 1394 1393 1393 1392 1392 1391 1390 1389 1389 1388 1387 1387 1387 1387 1386 1386 1386 1385 1385 1385 1384 1384 1384 1383 1383 1383 1383 1383 1383 1383 1384 1383 1383 1383 1383 1384 1382 1381
1417 1416 1414 1412 1410 1409 1407 1406 1406 1405 1405 1404 1403 1402 1402 1401 1400 1399 1399 1398 1397 1396 1394 1393 1392 1391 1390 1389 1389 1388 1387 1386 1385 1385 1384 1384 1383 1383 1383 1383 1383 1382 1382 1382 1382 1381 1381 1381 1380 1380 1380 1380 1380 1380 1380 1381 1380 1380 1380 1380 1380 1379 1378
1414 1413 1411 1409 1408 1407 1406 1403 1402 1402 1402 1401 1401 1400 1399 1398 1398 1397 1396 1395 1394 1392 1391 1389 1388 1388 1387 1386 1386 1385 1384 1383 1382 1381 1380 1380 1380 1380 1380 1380 1380 1380 1380 1379 1379 1379 1378 1378 1377 1377 1377 1376 1376 1376 1377 1377 1377 1377 1377 1377 1376 1375 1375
1411 1410 1408 1406 1404 1403 1402 1401 1400 1399 1399 1398 1397 1396 1396 1395 1394 1394 1393 1391 1390 1388 1387 1386 1385 1385 1384 1384 1383 1382 1381 1380 1379 1378 1377 1377 1377 1377 1377 1377 1377 1377 1377 1376 1376 1376 1375 1375 1374 1374 1373 1373 1373 1372 1373 1373 1374 1374 1373 1373 1373 1372 1372
1407 1406 1405 1403 1401 1400 1398 1398 1397 1396 1396 1395 1394 1393 1393 1392 1391 1390 1388 1387 1386 1385 1384 1383 1383 1381 1381 1380 1379 1379 1378 1378 1377 1376 1375 1375 1374 1374 1375 1374 1374 1374 1374 1373 1373 1372 1372 1372 1371 1371 1370 1370 1370 1369 1369 1369 1370 1370 1370 1370 1369 1369 1368
1404 1402 1401 1400 1398 1397 1395 1395 1394 1393 1393 1392 1392 1391 1390 1388 1386 1385 1384 1384 1383 1382 1381 1380 1380 1378 1378 1377 1376 1376 1375 1375 1375 1374 1373 1373 1372 1372 1372 1372 1371 1371 1371 1371 1370 1370 1369 1369 1369 1368 1367 1367 1367 1366 1366 1365 1366 1366 1367 1366 1366 1366 1365
1401 1399 1398 1396 1395 1394 1393 1392 1391 1390 1390 1389 1388 1387 1386 1384 1383 1383 1382 1381 1381 1379 1378 1377 1376 1376 1375 1374 1374 1373 1373 1373 1372 1371 1371 1370 1370 1369 1369 1369 1369 1368 1368 1368 1367 1367 1366 1366 1366 1365 1364 1364 1363 1363 1363 1362 1363 1363 1363 1363 1363 1362 1362
1396 1396 1395 1394 1392 1391 1390 1389 1388 1387 1386 1385 1385 1384 1382 1381 1380 1380 1379 1378 1378 1377 1376 1375 1374 1373 1372 1372 1371 1371 1370 1370 1369 1369 1368 1367 1367 1366 1366 1366 1365 1365 1365 1365 1364 1364 1364 1363 1363 1362 1362 1361 1360 1360 1360 1360 1360 1360 1360 1359 1359 1359 1359
1393 1392 1392 1391 1390 1389 1387 1386 1385 1384 1383 1383 1382 1381 1379 1378 1377 1376 1375 1375 1374 1374 1373 1372 1371 1371 1370 1369 1369 1368 1368 1367 1367 1366 1365 1365 1364 1363 1362 1362 1362 1362 1362 1361 1361 1361 1360 1360 1360 1359 1359 1358 1358 1358 1357 1357 1357 1356 1356 1356 1356 1356 1356
Wind_Speed
2 1 1 1 2 3 4 4 4 5 6 6 6 7 7 8 8 9 10 10 11 12 12 12 12 13 14 15 16 16 17 18 18 20 21 22 24 25 25 26 27 30 33 31 28 27 26 25 25 24 23 22 21 22 24 26 27 27 27 27 28 29 28
4 4 3 2 1 1 1 2 2 3 5 6 7 8 8 8 9 9 10 11 12 12 13 13 13 14 16 17 17 17 18 18 19 20 22 22 24 25 26 27 28 30 33 33 30 29 27 26 25 24 23 23 23 24 24 25 26 26 26 26 26 27 27
6 5 5 5 4 4 3 3 2 2 2 3 4 5 6 7 8 9 10 11 12 12 13 14 14 15 16 17 18 19 19 20 20 21 22 22 23 24 25 26 27 29 30 31 30 28 27 26 26 26 25 26 27 28 28 29 29 28 28 28 29 29 30
6 6 5 5 5 5 5 5 5 5 5 4 4 5 5 6 6 7 7 8 9 11 11 12 14 15 16 17 18 18 19 20 21 22 22 23 23 24 25 26 27 28 30 31 31 30 29 28 28 29 29 29 30 31 32 33 33 33 33 33 32 33 33
6 6 6 6 6 6 6 6 6 7 7 7 7 7 7 7 8 8 8 9 9 9 10 10 11 12 13 15 16 16 17 18 19 20 21 22 23 24 26 26 28 29 31 33 34 34 33 32 32 32 32 32 33 34 34 35 36 36 35 35 34 34 33
7 8 8 8 9 9 9 9 9 9 9 9 10 10 10 10 10 10 10 11 11 11 12 12 11 12 12 13 14 15 16 16 17 18 19 20 21 22 23 25 26 28 29 32 33 33 33 33 34 34 34 34 34 35 35 35 36 37 37 37 37 37 36
9 9 10 10 11 11 11 12 12 12 12 12 13 13 13 12 13 13 13 13 13 14 14 14 14 14 14 15 15 15 16 16 17 18 18 19 20 21 21 23 24 25 26 28 29 30 30 30 31 31 32 32 31 32 33 33 34 35 36 36 38 38 38
12 12 12 12 12 12 13 13 14 14 15 15 15 16 16 16 16 16 16 15 15 15 16 16 17 17 17 17 18 18 18 18 19 19 19 19 20 21 21 22 23 23 24 25 27 27 28 28 28 29 29 29 29 30 31 30 31 33 33 33 34 36 37
14 14 14 14 14 14 14 15 15 15 16 17 17 18 19 18 19 19 19 18 18 17 17 18 18 19 19 20 20 20 21 21 21 21 21 21 21 21 22 22 23 24 24 25 26 27 26 26 27 27 27 28 28 29 30 29 29 32 33 32 33 34 34
17 17 17 17 16 16 16 16 16 16 17 17 18 20 21 21 21 22 22 22 21 20 20 20 20 20 21 21 21 22 22 23 23 24 23 23 23 23 24 24 24 25 25 25 26 26 26 26 26 25 24 26 27 27 28 28 29 31 31 31 33 36 35
21 21 20 20 19 19 18 18 18 17 17 17 18 20 21 22 23 24 24 24 23 23 23 22 22 22 22 23 23 23 24 24 24 25 25 25 25 25 25 26 26 27 26 26 27 28 27 27 27 25 23 24 25 25 26 27 27 29 29 28 30 34 34
24 24 23 23 23 22 21 20 20 18 18 18 18 19 21 23 25 25 26 25 24 23 24 24 24 23 23 24 24 25 26 26 26 26 26 26 26 25 26 26 27 28 28 28 28 29 29 29 28 26 25 23 23 24 25 26 26 27 27 27 28 31 31
25 25 25 25 25 24 23 23 22 21 19 19 18 18 19 22 26 27 26 26 24 24 24 25 25 26 25 24 25 26 27 28 28 28 28 29 28 27 26 26 27 28 28 29 30 31 31 30 28 29 27 24 22 22 24 25 26 26 26 27 28 29 29
26 26 25 26 26 26 25 24 23 22 21 20 19 17 18 23 26 26 26 25 25 24 24 24 25 27 27 26 26 26 27 28 29 29 30 30 30 30 29 28 28 28 29 29 29 31 32 31 29 30 30 27 26 27 26 26 27 27 27 27 28 29 30
26 26 25 25 26 26 25 24 23 23 21 20 19 18 20 24 27 26 25 26 25 23 22 23 25 26 26 27 27 26 26 27 28 28 29 30 30 31 31 30 31 31 31 30 29 30 31 31 30 30 30 28 27 28 29 30 31 31 30 30 31 32 32
25 25 25 25 25 26 26 24 23 23 22 20 18 18 21 24 24 24 24 25 25 23 21 22 23 24 25 26 26 25 25 25 24 24 26 28 29 30 30 31 31 31 32 31 30 28 27 26 26 25 24 22 20 22 26 30 33 34 33 34 36 37 37
24 24 24 24 24 25 25 24 23 23 22 20 17 18 20 22 22 22 23 25 25 24 22 21 21 23 24 25 25 24 23 22 21 21 23 25 27 28 28 29 29 30 31 31 31 30 29 27 27 26 25 23 22 22 24 27 30 30 29 30 34 38 38
23 23 22 23 24 24 24 24 22 22 22 19 15 16 18 19 20 22 23 24 24 23 22 21 21 21 23 24 24 24 23 20 18 19 21 22 25 26 26 26 26 28 30 30 31 32 33 33 33 31 30 30 29 29 27 27 29 28 26 28 31 34 34
22 21 20 21 22 22 22 23 21 21 20 18 14 13 15 17 19 21 22 23 24 24 23 22 22 21 21 22 22 23 22 21 19 20 20 19 21 23 24 23 23 26 30 31 32 33 33 34 34 34 34 34 35 35 33 32 33 31 29 30 32 32 31
21 21 19 18 19 20 20 20 20 20 19 18 15 12 12 15 19 21 23 24 24 24 23 22 23 22 21 20 20 20 21 21 21 21 21 20 21 24 24 23 24 27 29 31 33 32 31 31 31 32 34 35 35 35 35 35 35 34 34 34 35 35 33
19 20 19 18 18 18 18 18 19 19 18 18 16 13 12 17 20 19 21 23 22 22 23 24 24 24 22 20 20 19 19 17 16 16 18 20 21 21 20 20 22 23 24 27 30 30 30 29 29 30 31 32 32 32 31 31 32 33 33 34 35 36 36
18 19 19 18 17 17 16 16 17 18 18 18 17 16 15 18 19 17 18 21 22 21 22 22 23 23 22 21 21 19 16 14 15 17 20 22 22 21 20 20 22 23 24 26 29 31 32 32 31 30 29 28 29 29 28 28 28 28 27 28 30 32 34
17 18 19 18 17 16 15 15 16 18 19 19 20 20 20 21 21 17 16 20 23 22 21 21 22 22 22 23 23 21 18 18 20 22 24 25 25 25 26 26 26 26 28 29 29 31 32 33 32 31 30 28 27 26 25 25 25 26 26 26 28 30 32
17 18 19 19 19 18 18 18 19 19 21 21 22 23 23 22 22 20 18 19 22 23 23 23 23 24 24 25 25 25 24 24 24 24 24 24 25 27 29 30 31 30 30 30 31 31 32 33 33 31 29 27 25 23 22 23 24 25 27 29 31 32 33
17 18 19 20 22 23 22 22 22 22 22 22 23 23 23 22 22 22 21 22 24 24 24 25 26 26 27 28 28 29 29 28 27 25 25 24 24 25 27 29 31 32 32 32 33 33 33 33 31 27 25 22 20 19 20 21 22 24 26 28 30 32 34
19 20 21 22 24 24 25 25 24 24 23 22 22 22 21 21 21 21 21 23 24 25 26 27 27 28 29 29 30 30 30 30 28 27 26 25 24 24 25 26 27 29 30 30 31 30 29 28 26 23 21 20 19 18 18 17 17 19 20 20 23 26 29
21 22 23 25 26 26 27 26 26 25 24 23 22 22 21 20 20 20 20 21 23 24 25 25 26 27 28 28 28 27 27 27 26 25 24 24 23 23 23 24 24 25 25 25 25 25 24 24 22 21 21 20 19 20 18 16 15 17 18 18 20 23 27
22 23 24 26 27 28 28 28 27 25 24 23 22 22 21 21 21 21 21 22 22 23 24 24 24 25 27 27 27 25 25 24 23 22 21 20 20 20 19 19 19 20 20 20 20 21 22 22 23 22 22 21 19 19 19 18 19 20 20 20 21 25 28
23 24 23 25 27 27 27 27 25 24 22 21 20 20 20 21 21 21 21 21 21 21 22 23 25 26 28 28 27 26 26 24 23 21 19 18 18 17 17 16 15 15 16 18 19 21 23 24 25 25 24 23 23 22 22 21 21 22 22 21 21 23 25
23 23 22 24 26 25 23 23 24 24 23 21 19 18 18 18 18 18 18 19 19 20 22 24 26 27 28 28 29 29 28 25 22 20 18 17 16 15 16 15 14 13 15 18 20 22 24 25 25 26 25 24 24 24 23 20 18 19 20 19 19 21 22
23 22 22 23 24 24 23 23 23 22 21 19 19 19 19 18 17 17 17 18 20 22 24 25 26 28 29 29 29 29 26 22 19 18 17 17 16 15 14 15 14 14 16 18 20 21 23 24 24 25 25 24 24 24 24 22 20 19 19 19 20 21 22
22 22 22 22 22 22 23 22 21 19 17 17 18 18 17 16 15 14 16 18 21 24 25 26 27 28 29 28 28 25 21 18 16 16 15 15 14 14 13 14 15 15 17 18 20 21 22 23 24 24 24 24 23 23 24 24 24 23 22 22 22 23 23
20 20 20 20 20 20 20 19 18 16 15 15 15 14 14 13 14 15 17 19 21 23 24 24 25 25 24 23 22 20 17 14 14 14 14 13 13 14 14 14 15 16 17 18 19 20 22 23 24 24 25 24 23 23 23 23 24 24 23 23 23 24 25
17 17 17 18 18 17 17 16 15 14 13 13 13 13 14 16 19 19 19 19 20 22 22 21 21 20 19 18 17 16 14 14 15 16 17 17 16 16 16 16 17 18 19 19 20 21 22 23 23 24 25 24 23 22 21 21 21 22 22 23 23 23 24
18 16 15 16 16 16 15 15 15 15 15 16 16 16 18 21 22 22 22 22 22 21 20 18 17 16 15 15 14 14 15 16 18 19 20 21 21 21 21 21 21 20 20 20 21 22 22 22 23 24 24 22 20 19 19 19 19 19 21 22 23 23 24
20 18 15 14 14 15 15 16 16 17 18 18 18 19 21 23 23 23 23 23 22 21 19 17 15 14 14 14 14 14 15 17 19 21 22 23 24 25 25 25 25 24 24 24 23 24 23 24 24 23 21 19 18 16 16 17 17 18 19 20 20 22 23
Wind_Direction
104 121 158 211 240 250 254 257 257 257 256 256 257 255 254 253 252 252 252 253 256 257 258 260 261 261 262 262 261 260 259 256 253 252 251 248 248 246 245 245 247 253 258 259 259 261 262 263 263 261 259 256 252 248 247 246 247 249 249 248 249 248 247
52 50 48 44 30 350 278 253 245 246 247 247 250 252 251 251 251 252 252 252 254 254 254 256 257 258 260 261 261 260 258 255 251 248 246 245 245 244 244 245 247 252 258 260 260 259 260 260 259 256 252 248 245 244 242 241 239 240 242 242 243 244 244
29 26 22 17 9 0 355 348 333 307 285 270 262 259 257 255 253 252 252 253 254 254 254 254 255 255 256 257 259 259 258 257 254 251 248 246 245 245 245 246 248 252 257 261 262 260 257 255 254 251 249 246 245 245 244 244 243 242 242 243 244 245 245
15 11 5 358 354 348 343 339 334 328 321 313 304 296 288 282 277 272 269 266 263 262 261 260 259 258 257 256 256 255 254 255 256 256 256 254 251 250 249 248 248 251 255 260 263 262 260 257 255 252 250 249 248 248 248 249 250 249 247 247 247 247 246
355 349 345 340 335 334 332 328 323 320 316 312 308 302 299 295 292 290 287 283 282 279 277 275 273 270 267 264 261 259 257 255 256 256 257 258 257 256 255 253 252 252 254 258 262 264 264 262 261 259 256 254 254 254 253 252 252 252 250 249 247 246 246
337 333 331 330 328 324 322 320 316 312 308 305 303 299 297 295 292 291 289 287 287 286 285 284 282 280 279 276 272 269 267 264 262 260 259 260 259 259 258 257 255 255 256 258 261 264 264 264 263 263 262 260 260 260 259 257 255 253 252 251 250 248 249
326 325 325 323 321 318 315 314 311 308 305 302 299 296 292 291 289 286 284 284 285 284 284 283 281 280 278 278 277 275 274 271 269 267 265 264 264 263 262 261 260 259 258 259 260 262 264 264 264 264 264 263 262 262 262 261 260 258 256 254 254 253 253
321 320 319 317 315 312 310 308 306 304 302 299 296 293 291 289 287 284 282 281 280 279 279 279 279 278 276 274 274 272 271 270 268 267 265 265 266 265 264 265 264 264 262 262 262 263 264 265 264 264 264 264 263 262 262 262 264 264 262 259 258 258 258
321 318 316 314 313 310 307 305 303 301 299 297 294 291 289 288 286 284 282 279 277 275 276 275 275 274 273 272 270 268 266 265 264 264 263 261 262 262 262 263 263 264 264 264 265 265 266 266 265 263 262 262 261 262 264 264 262 263 263 263 261 260 258
320 317 315 312 311 310 309 306 304 302 301 299 296 292 290 288 285 283 282 280 279 277 275 274 272 271 271 270 269 266 263 262 260 259 259 258 258 258 259 259 260 261 262 262 263 264 265 266 267 267 265 261 258 258 261 261 261 262 263 263 262 260 258
319 317 315 313 311 309 309 307 305 304 301 299 297 295 292 289 286 283 281 280 281 280 277 275 272 271 269 268 268 266 264 263 261 258 256 255 254 255 256 257 257 257 257 258 259 260 261 262 264 266 267 265 262 259 257 258 259 260 261 262 262 262 261
318 317 315 313 311 310 309 307 305 304 301 298 295 294 292 290 286 284 283 283 282 281 280 277 275 272 269 267 265 265 264 264 263 261 259 256 253 252 253 254 256 257 256 256 256 257 257 257 259 261 262 265 267 265 262 260 259 259 261 262 261 261 262
315 315 314 311 310 309 308 308 306 305 303 298 295 294 291 287 283 283 285 286 284 282 280 278 276 273 270 267 265 264 263 263 263 263 261 260 258 254 252 252 254 255 256 256 256 257 257 257 259 260 259 258 260 262 262 262 262 261 262 262 262 261 262
312 312 311 309 308 307 306 306 305 304 303 300 298 296 289 284 283 285 287 286 284 284 282 279 276 274 271 269 266 264 263 263 262 262 261 262 262 260 257 254 253 253 254 255 257 259 260 259 259 260 260 256 252 252 253 255 258 259 258 259 259 260 260
310 309 309 307 306 304 303 304 302 300 300 299 299 295 288 284 286 290 291 288 285 284 283 280 277 275 273 271 269 267 266 265 264 265 264 264 264 263 262 259 257 255 255 256 257 259 262 264 263 263 265 266 263 259 256 253 253 253 253 254 256 256 256
307 307 306 304 304 302 301 301 300 298 297 297 297 293 288 288 290 292 292 289 287 285 282 279 278 277 276 275 272 270 268 268 269 269 270 269 267 266 265 263 262 260 258 257 257 258 260 262 263 262 263 265 263 258 255 253 251 251 252 254 255 255 255
306 305 304 304 303 301 300 300 300 297 296 297 297 293 290 291 294 293 291 290 290 288 285 281 280 279 278 276 274 271 269 269 271 272 274 274 273 272 270 269 268 266 262 259 257 255 254 253 251 248 245 244 244 244 248 252 253 252 253 255 256 257 258
305 304 304 303 302 301 300 301 301 300 297 298 298 293 292 294 295 293 293 293 293 291 289 286 280 277 275 274 274 273 269 268 270 273 276 278 280 281 279 277 276 273 268 264 259 256 254 253 252 250 246 242 240 241 243 247 252 253 252 253 254 257 261
303 302 301 299 298 298 298 299 299 298 297 298 295 292 297 300 295 292 291 291 292 293 293 289 282 277 276 275 275 275 273 269 264 263 267 273 278 280 278 278 279 279 277 273 267 261 258 257 257 256 254 250 247 245 243 245 248 251 253 254 254 255 259
303 301 299 296 293 292 294 294 293 292 293 293 291 293 301 296 288 288 291 292 294 295 294 291 287 284 282 280 278 276 274 269 263 262 264 266 267 271 276 281 282 281 279 278 274 271 270 268 265 262 260 257 255 253 251 250 250 250 251 254 255 255 256
301 299 298 295 292 291 291 290 289 289 288 288 287 290 295 288 285 292 300 299 298 297 295 293 293 292 290 286 281 276 274 276 279 277 273 269 267 269 274 277 275 271 270 272 274 276 277 277 275 272 268 264 263 261 258 255 252 250 250 252 255 256 256
296 294 292 292 292 292 292 291 291 290 289 288 287 286 288 287 287 297 306 302 297 295 294 294 295 296 294 291 287 283 282 284 280 266 256 256 259 258 256 256 258 259 260 265 271 276 277 278 279 279 277 274 270 268 265 261 256 249 246 247 250 253 254
294 292 292 292 292 293 293 293 291 290 290 291 290 289 289 289 287 288 295 297 294 290 289 289 291 292 292 291 290 287 283 278 270 262 256 254 254 252 251 253 256 259 262 266 270 274 276 279 282 283 282 280 276 273 270 265 259 251 243 241 243 247 250
296 295 295 296 294 294 293 292 289 288 289 290 291 290 290 289 287 282 280 282 283 283 282 284 286 287 287 287 288 287 284 281 278 276 273 268 263 259 257 257 259 262 266 269 271 274 277 279 282 284 285 283 281 277 270 264 258 252 245 242 243 246 249
297 296 296 296 295 295 295 293 292 292 291 291 290 290 288 287 286 282 278 276 277 279 280 281 283 284 284 285 286 286 286 285 284 282 280 276 273 270 266 264 264 266 268 271 273 275 278 279 280 282 282 281 279 274 269 264 261 256 251 248 249 250 252
297 297 296 296 296 296 295 295 295 295 296 295 293 291 290 288 285 282 279 276 276 278 279 280 282 283 284 285 286 287 288 288 288 287 283 280 277 274 271 270 270 269 270 271 273 274 275 276 278 278 275 272 270 268 266 267 267 264 260 258 259 260 259
298 299 299 299 299 299 298 299 301 301 302 302 300 298 296 294 290 286 283 280 280 281 283 284 286 287 286 285 285 286 289 290 289 287 284 280 276 273 271 271 271 270 268 268 269 271 272 273 275 275 273 270 268 266 262 262 265 265 262 260 262 265 265
298 299 301 302 301 300 301 302 303 304 306 307 307 308 307 305 303 301 298 296 296 297 297 296 293 290 289 288 289 291 292 291 289 287 283 279 274 267 265 265 265 264 264 265 268 270 272 274 275 275 275 274 270 268 266 265 264 264 264 266 267 267 269
295 298 300 299 297 299 303 304 303 302 302 304 306 308 308 307 308 307 305 304 304 301 296 290 286 285 287 290 294 298 298 296 293 288 282 277 271 263 257 255 256 260 265 267 269 270 272 275 276 276 276 273 269 268 268 269 267 264 264 266 265 264 267
291 293 293 292 293 297 299 298 296 295 296 299 303 305 304 302 302 303 301 297 291 282 277 277 279 282 286 291 295 299 300 301 299 292 285 278 269 260 255 252 253 264 273 273 271 272 273 276 278 279 280 278 274 269 265 263 263 263 262 259 258 260 264
290 289 288 290 293 294 291 289 290 293 295 298 300 301 301 299 299 299 296 287 278 273 273 276 279 283 287 291 294 297 299 301 299 293 289 283 274 265 261 259 258 265 271 272 272 274 275 276 280 282 284 282 279 274 267 262 260 262 262 260 259 261 263
293 291 290 291 292 292 291 290 291 293 297 300 302 305 307 305 299 293 286 279 275 275 277 281 284 286 289 291 293 295 297 298 296 292 290 286 281 273 268 264 263 265 267 269 272 275 276 278 282 284 285 285 282 279 274 268 263 263 265 264 262 261 262
293 293 294 294 293 292 291 290 290 293 299 305 308 311 311 299 283 275 276 279 282 285 287 288 289 289 290 291 292 293 293 291 289 288 285 282 280 278 272 267 265 266 267 270 273 276 278 281 283 285 286 287 285 281 277 273 268 265 265 265 265 266 267
297 298 298 298 296 294 291 288 287 288 291 293 296 300 296 285 275 273 276 280 286 291 293 293 292 290 289 288 288 287 286 283 281 280 280 279 278 277 274 271 269 269 270 272 274 276 279 281 283 286 289 290 287 282 279 276 272 267 264 262 262 264 266
306 306 304 302 300 297 293 287 282 279 276 276 280 283 285 283 281 281 281 281 284 288 289 288 290 291 290 286 283 281 282 282 280 280 281 281 280 278 276 275 274 274 274 275 275 277 279 281 284 288 291 290 286 282 280 278 275 270 266 263 262 262 262
307 308 306 303 300 295 290 285 283 282 281 281 282 283 285 287 289 290 290 289 290 290 286 280 280 284 285 282 279 278 279 281 281 281 282 282 282 281 280 279 278 278 278 277 278 279 281 283 286 288 288 283 278 277 277 277 275 271 268 266 266 265 264